User: anonymous   Login
Location: Unspecified
(0.0000°N, 0.0000°E)
Time: 00:28:44
(UTC+00:00)
Language:

Kiku-6 - Orbit

View from above orbital plane
View from above orbital plane
View from above satellite
View from above satellite

Ground track
Ground track

The orbit data is extracted from the following two-line orbital elements,

1 23230U 94056A   18203.55274413 -.00000075 +00000-0 +00000-0 0  9992
2 23230 013.2074 102.1840 5045774 111.5027 255.7989 01.67094107145992
Epoch (UTC): 22 July 2018 13:15:57
Eccentricity: 0.5045774
inclination: 13.2074°
perigee height: 8483 km
apogee height: 38756 km
right ascension of ascending node: 102.1840°
argument of perigee: 111.5027°
revolutions per day: 1.67094107
mean anomaly at epoch: 255.7989°
orbit number at epoch: 14599

The dashed part of the orbit path shows where the satellite is in the earth's shadow,  

DLR